Preview of NWS' New Version of Forecast
This preview is not operational and should not be used for support decisions.

Regional Weather Roundup (RWR)

Issued by National Weather Service (NWS)

                            
000
ASUS43 KTOP 202159
RWRKS 

WEATHER ROUNDUP FOR KANSAS
NATIONAL WEATHER SERVICE GOODLAND KS
500 PM CDT TUE AUG 20 2019

NOTE:  "FAIR" INDICATES FEW OR NO CLOUDS BELOW 12,000 FEET WITH NO
SIGNIFICANT WEATHER AND/OR OBSTRUCTIONS TO VISIBILITY.

KSZ001>006-013>018-027>032-041>047-202300-
NORTHWEST KANSAS
  
CITY           SKY/WX    TMP DP  RH WIND       PRES   REMARKS
GOODLAND       SUNNY     97  63  32 S9        29.97F HX  98           
HAYS           SUNNY    102  65  29 SE5       30.03F HX 105           
HILL CITY      SUNNY     99  69  37 E14       29.92F HX 105           
RUSSELL        SUNNY     99  70  38 E9        29.90F HX 106           
$$

KSZ061>065-074>080-084>089-202300-
SOUTHWEST KANSAS
  
CITY           SKY/WX    TMP DP  RH WIND       PRES   REMARKS
DODGE CITY     SUNNY    104  53  18 SW16G26   29.94F HX 102           
GARDEN CITY    SUNNY    102  53  19 S24G30    29.94F HX 100           
GREAT BEND     SUNNY     98  70  40 S9        29.91F HX 105           
LIBERAL        SUNNY    100  54  21 S21       29.98F HX  98           
$$

KSZ066>073-081>083-090>101-202300-
SOUTHEAST KANSAS
  
CITY           SKY/WX    TMP DP  RH WIND       PRES   REMARKS
CHANUTE        SUNNY     95  76  53 S10       29.97F HX 108           
COFFEYVILLE    SUNNY     94  77  57 SE7       29.95F HX 108           
HUTCHINSON     SUNNY    102  68  33 S15       29.90F HX 108           
MEDICINE LODGE   N/A    103  61  25 S10       29.89F HX 104           
NEWTON         SUNNY     94  77  57 SE14      29.94F HX 108           
PARSONS        SUNNY     94  78  60 S7        29.98F HX 110           
WICHITA INTL   MOSUNNY  103  67  31 S15       29.91F HX 108           
WICHITA JABRA  SUNNY     97  74  47 SE14      29.92F HX 108           
WICHITA MCCONL SUNNY    100  69  37 E16       29.93F HX 106           
WINFIELD       SUNNY     96  73  47 S15       29.94F HX 105           
$$

KSZ007>012-019>026-033>040-048>060-102>105-202300-
NORTHEAST KANSAS
  
CITY           SKY/WX    TMP DP  RH WIND       PRES   REMARKS
CONCORDIA      SUNNY     93  76  57 E10       29.93F HX 105           
EMPORIA        SUNNY     95  77  55 S13       29.95F HX 109           
LAWRENCE       SUNNY     92  75  57 SE12      29.94F HX 103           
MANHATTAN      SUNNY     97  78  54 SE10      29.91F HX 114           
OLATHE IND     SUNNY     92  75  57 SE15G23   29.98F HX 103           
OLATHE EXE     SUNNY     90  76  63 S13       29.98S HX 101           
SALINA         SUNNY     97  76  50 SE12      29.91F HX 110           
TOPEKA BILLARD SUNNY     91  77  63 E12       29.94F HX 104           
TOPEKA FORBES  SUNNY     94  78  60 SE15G23   29.95F HX 110           
$$